Regional Weather Roundup
Issued by NWS Charleston, SC

Current Version | Previous Version | Graphics & Text | Print | Product List | Glossary On
Versions: 1 2 3 4 5 6 7 8 9 10 11 12 13 14 15 16 17 18 19 20 21 22 23 24 25 26 27 28 29 30 31 32 33 34 35 36 37 38 39 40 41 42 43 44 45 46 47 48 49 50
000
ASUS42 KCHS 051211
RWRCHS

REGIONAL WEATHER ROUNDUP
NATIONAL WEATHER SERVICE CHARLESTON SC
700 AM EST THU MAR 05 2015

NOTE: "FAIR" INDICATES FEW OR NO CLOUDS BELOW 12,000 FEET WITH NO
SIGNIFICANT WEATHER AND/OR OBSTRUCTIONS TO VISIBILITY.

NOT ALL STATIONS ARE QUALITY CONTROLLED BY THE NATIONAL
WEATHER SERVICE. USE DATA WITH CAUTION...ESPECIALLY
DEWPOINT OBSERVATIONS.

SCZ027-030-031-034>040-042>050-051300-
...SOUTHEAST SOUTH CAROLINA...

CITY           SKY/WX    TMP DP  RH WIND       PRES   REMARKS
N CHARLESTON   FOG       63  61  93 SW10      30.02R VSB 1/2
6HR MIN TEMP:  58; 6HR MAX TEMP:  63;

WATERFRONT PRK NOT AVBL
MOUNT PLEASANT FOG       63  63 100 SW12      30.02R VSB 1/2
PINOPOLIS      NOT AVBL
MONCKS CORNER  CLOUDY    64  61  88 SW10      30.00R
SUMMERVILLE    CLOUDY    61  61 100 S8        30.01R FOG
BEAUFORT MCAS  PTCLDY    64  62  93 S5        30.01R
6HR MIN TEMP:  59; 6HR MAX TEMP:  65;

BEAUFORT ARPT  FAIR      63  63 100 CALM      30.01S
HILTON HEAD IS CLEAR     63  63 100 S7        30.04
WALTERBORO     CLOUDY    63  63 100 S7        30.01S
ALLENDALE      CLOUDY    66  64  94 S6        29.98S

...SOUTHERN MIDLANDS AND PEE DEE...

CITY           SKY/WX    TMP DP  RH WIND       PRES   REMARKS
GEORGETOWN     NOT AVBL
KINGSTREE      NOT AVBL
ORANGEBURG     PTCLDY    63  59  87 S10       29.97R
6HR MIN TEMP:  62; 6HR MAX TEMP:  67;

BARNWELL       CLOUDY    66  64  94 S9        29.97S
AIKEN          CLOUDY    66  64  94 S15G21    29.97F
MANNING        FAIR     N/A N/A N/A S6        29.97S
COLUMBIA       MOCLDY    69  62  78 SW14G23   29.92R
6HR MIN TEMP:  64; 6HR MAX TEMP:  69;

SUMTER         MOCLDY    65  61  89 SW14      29.92
6HR MIN TEMP:  64; 6HR MAX TEMP:  65;

FLORENCE       PTCLDY    64  60  87 S12       29.93S
6HR MIN TEMP:  63; 6HR MAX TEMP:  66;

MYRTLE BEACH   CLEAR     61  57  88 SW12      30.00R
N MYRTLE BEACH MOCLDY    54  53  97 SW14      29.99R FOG
6HR MIN TEMP:  53; 6HR MAX TEMP:  61;


$$

GAZ063-065-086>088-099>101-113>116-118-119-134>141-150-051300-
...SOUTHEAST GEORGIA...

CITY           SKY/WX    TMP DP  RH WIND       PRES   REMARKS
SAVANNAH ARPT  PTCLDY    65  63  93 S10       30.02R
6HR MIN TEMP:  61; 6HR MAX TEMP:  67;

HUNTER AAF     CLEAR     65  65 100 S7        30.01R
6HR MIN TEMP:  60; 6HR MAX TEMP:  65;

FORT STEWART   PTCLDY    66  64  94 S5        30.01R
STATESBORO     CLOUDY    66  66 100 SW8       29.99R
SYLVANIA       CLOUDY    66  65  96 SW7       29.99F
CLAXTON        FAIR      68  64  88 S5        30.00S

...CSRA...CENTRAL AND FAR SOUTHEAST GEORGIA...

CITY           SKY/WX    TMP DP  RH WIND       PRES   REMARKS
THOMSON        CLOUDY    70  67  89 S12G21    29.96S
AUGUSTA-BUSH   CLOUDY    68  63  84 S10       29.94F
6HR MIN TEMP:  64; 6HR MAX TEMP:  68;

AUGUSTA-DANIEL CLOUDY    69  63  81 SW14G23   29.93F
SWAINSBORO     CLOUDY    68  68 100 SW3       29.99S
VIDALIA        PTCLDY    66  64  94 SW10G17   29.99S
EASTMAN        CLOUDY    69  69 100 SW6       30.01R
HAZLEHURST     FAIR      68  67  97 S10G17    29.99S
ALMA           CLOUDY    66  64  93 S10       30.02S
6HR MIN TEMP:  64; 6HR MAX TEMP:  67;

WAYCROSS       MOCLDY    71  69  95 SW8       30.05R
JESUP          PTSUNNY   68  68 100 SW5       30.04S
BAXLEY         MOCLDY    68  66  94 S10       30.01S
BRUNSWICK      CLOUDY    68  64  88 SW6       30.07R
SAINT SIMONS   FOG       60  60 100 MISG      30.08R VSB 1
6HR MIN TEMP:  58; 6HR MAX TEMP:  66;


$$

SCZ027-028-034-036>038-045-046-048>050-GAZ119-141-051300-
...LAKE AND SUPPLEMENTAL COASTAL OBSERVATIONS...

STATION/POSITION TIME  TEMP    WIND        PRES    WAVE   SWELL
                       AIR SEA DIR/SP/G            HT/PER HT/PER/DIR
                 (UTC) (F)     (DEG/KT/KT) (MB)    (FT/S) (FT/S/D)
UPR LAKE MARION  NOT AVBL
WINYAH BAY       1045   60     200/  6     1015.0
LAKE MURRAY      1100   61     210/  9/ 11 1012.5R
ACE BASIN NERRS  NOT AVBL
FORT PULASKI     1100   59 52  190/  4/  7 1017.1R
SAPELO ISLAND    1100   63     230/  7     1017.0S

$$

ANZ835-935-AMZ111-154-330-350-352-354-370-450-454-472-051300-
...C-MAN AND BUOY OBSERVATIONS...

STATION/POSITION TIME  TEMP    WIND        PRES    WAVE   SWELL
                       AIR SEA DIR/SP/G            HT/PER HT/PER/DIR
                 (UTC) (F)     (DEG/KT/KT) (MB)    (FT/S) (FT/S/D)
BUOY 41004       1150   69 68  210/ 17/ 19 1015.9R   6/ 7   3/10
BUOY 41008       1150   57 54  200/  8/ 10 1018.0R   4/ 6   3/120/ 6
FOLLY BEACH CMAN 1200   56     220/ 13/ 15 1017.1R
CAPERS NEARSHORE 1100   54     210/ 10/ 12   N/A
FRIPP NEARSHORE  1100   56     210/ 14/ 17 1016.2R


STATION/POSITION TIME  TEMP    WIND        PRES    WAVE   SWELL
                       AIR SEA DIR/SP/G            HT/PER HT/PER/DIR
                 (UTC) (F)     (DEG/KT/KT) (MB)    (FT/S) (FT/S/D)
5E ST. MARYS GA  1121      55                N/A     3/ 6
FRYING PAN BUOY  1150   69 64  210/ 17/ 21 1016.2R   7/ 7   5/170/ 7
BUOY 41025       NOT AVBL
CAPE LOOKOUT NC  1100   61     210/ 14/ 21 1014.9S
BUOY 41002       1150   73 73  210/ 19/ 21 1020.3R   6/ 6   3/140/10
BUOY 41010       1120   74 74  180/ 14/ 17 1019.6R
ST AUGUSTINE FL  1200   60     190/  6/  7 1019.4R


$$


USA.gov is the U.S. government's official web portal to all federal, state and local government web resources and services.